owner,sensor,date,latitude,longitude,vertical_datum,direction_of_sea_water_velocity,sea_water_speed,upward_sea_water_velocity,qcFlag 
TABS,ioos:station:wmo:42049:1,2011-12-01T00:00:00Z,28.3507,-96.0058,2.0,61.09490442,5.585883994,-99999.0,'11133222,11111222,99999999' 
TABS,ioos:station:wmo:42049:1,2011-12-01T00:30:00Z,28.3507,-96.0058,2.0,56.89256002,5.455758426,-99999.0,'11133222,11111222,99999999' 
TABS,ioos:station:wmo:42049:1,2011-12-01T01:00:00Z,28.3507,-96.0058,2.0,46.04845536,6.570121764,-99999.0,'11133222,11111222,99999999' 
TABS,ioos:station:wmo:42049:1,2011-12-01T01:30:00Z,28.3507,-96.0058,2.0,57.39427216,7.181879977,-99999.0,'11133222,11111222,99999999' 
TABS,ioos:station:wmo:42049:1,2011-12-01T02:00:00Z,28.3507,-96.0058,2.0,62.85038179,7.45096638,-99999.0,'11133222,11111222,99999999' 
TABS,ioos:station:wmo:42049:1,2011-12-01T02:30:00Z,28.3507,-96.0058,2.0,67.61991728,5.883128419,-99999.0,'11133222,11111222,99999999' 
TABS,ioos:station:wmo:42049:1,2011-12-01T03:00:00Z,28.3507,-96.0058,2.0,77.43400857,5.01000998,-99999.0,'11133222,11111222,99999999' 
TABS,ioos:station:wmo:42049:1,2011-12-01T03:30:00Z,28.3507,-96.0058,2.0,76.25512063,7.15489343,-99999.0,'11133222,11111222,99999999' 
TABS,ioos:station:wmo:42049:1,2011-12-01T04:00:00Z,28.3507,-96.0058,2.0,88.34395456,5.88245697,-99999.0,'11133222,11111222,99999999' 
TABS,ioos:station:wmo:42049:1,2011-12-01T04:30:00Z,28.3507,-96.0058,2.0,89.14383989,8.030896588,-99999.0,'11133222,11111222,99999999' 
TABS,ioos:station:wmo:42049:1,2011-12-01T05:00:00Z,28.3507,-96.0058,2.0,70.53857567,7.413568641,-99999.0,'11133222,11111222,99999999' 
TABS,ioos:station:wmo:42049:1,2011-12-01T05:30:00Z,28.3507,-96.0058,2.0,92.64762347,5.19554617,-99999.0,'11133222,11111222,99999999' 
TABS,ioos:station:wmo:42049:1,2011-12-01T06:00:00Z,28.3507,-96.0058,2.0,92.97894279,7.119620776,-99999.0,'11133222,11111222,99999999' 
TABS,ioos:station:wmo:42049:1,2011-12-01T06:30:00Z,28.3507,-96.0058,2.0,77.82042026,9.432311488,-99999.0,'11133222,11111222,99999999' 
TABS,ioos:station:wmo:42049:1,2011-12-01T07:00:00Z,28.3507,-96.0058,2.0,81.93878158,7.059759203,-99999.0,'11133222,11111222,99999999' 
TABS,ioos:station:wmo:42049:1,2011-12-01T07:30:00Z,28.3507,-96.0058,2.0,92.94284042,8.180788471,-99999.0,'11133222,11111222,99999999' 
TABS,ioos:station:wmo:42049:1,2011-12-01T08:00:00Z,28.3507,-96.0058,2.0,89.22344995,6.640609912,-99999.0,'11133222,11111222,99999999' 
TABS,ioos:station:wmo:42049:1,2011-12-01T08:30:00Z,28.3507,-96.0058,2.0,99.62715283,5.142421609,-99999.0,'11133222,11111222,99999999' 
TABS,ioos:station:wmo:42049:1,2011-12-01T09:00:00Z,28.3507,-96.0058,2.0,81.79915221,6.870254726,-99999.0,'11133222,11111222,99999999' 
TABS,ioos:station:wmo:42049:1,2011-12-01T09:30:00Z,28.3507,-96.0058,2.0,63.61248785,8.662568903,-99999.0,'11133222,11111222,99999999' 
TABS,ioos:station:wmo:42049:1,2011-12-01T10:00:00Z,28.3507,-96.0058,2.0,62.47789349,9.370432221,-99999.0,'11133222,11111222,99999999' 
TABS,ioos:station:wmo:42049:1,2011-12-01T10:30:00Z,28.3507,-96.0058,2.0,62.78252632,10.21054847,-99999.0,'11111222,11111222,99999999' 
TABS,ioos:station:wmo:42049:1,2011-12-01T11:00:00Z,28.3507,-96.0058,2.0,74.78130671,11.04742504,-99999.0,'11111222,11111222,99999999' 
TABS,ioos:station:wmo:42049:1,2011-12-01T11:30:00Z,28.3507,-96.0058,2.0,75.0425194,11.313324,-99999.0,'11111222,11111222,99999999' 
TABS,ioos:station:wmo:42049:1,2011-12-01T12:00:00Z,28.3507,-96.0058,2.0,61.97384226,9.470591323,-99999.0,'11133222,11111222,99999999' 
TABS,ioos:station:wmo:42049:1,2011-12-01T12:30:00Z,28.3507,-96.0058,2.0,62.2129557,10.27483333,-99999.0,'11111222,11111222,99999999' 
TABS,ioos:station:wmo:42049:1,2011-12-01T13:00:00Z,28.3507,-96.0058,2.0,80.27449354,7.873150576,-99999.0,'11133222,11111222,99999999' 
TABS,ioos:station:wmo:42049:1,2011-12-01T13:30:00Z,28.3507,-96.0058,2.0,77.40496995,10.31830412,-99999.0,'11111222,11111222,99999999' 
TABS,ioos:station:wmo:42049:1,2011-12-01T14:00:00Z,28.3507,-96.0058,2.0,75.57028149,8.82850497,-99999.0,'11133222,11111222,99999999' 
TABS,ioos:station:wmo:42049:1,2011-12-01T14:30:00Z,28.3507,-96.0058,2.0,55.81995261,7.458216945,-99999.0,'11133222,11111222,99999999' 
TABS,ioos:station:wmo:42049:1,2011-12-01T15:00:00Z,28.3507,-96.0058,2.0,61.37179512,7.701538807,-99999.0,'11133222,11111222,99999999' 
TABS,ioos:station:wmo:42049:1,2011-12-01T15:30:00Z,28.3507,-96.0058,2.0,80.36921295,9.503946549,-99999.0,'11133222,11111222,99999999' 
TABS,ioos:station:wmo:42049:1,2011-12-01T16:00:00Z,28.3507,-96.0058,2.0,48.1037632,7.966636681,-99999.0,'11133222,11111222,99999999' 
TABS,ioos:station:wmo:42049:1,2011-12-01T16:30:00Z,28.3507,-96.0058,2.0,55.54644296,6.4517362,-99999.0,'11133222,11111222,99999999' 
TABS,ioos:station:wmo:42049:1,2011-12-01T17:00:00Z,28.3507,-96.0058,2.0,22.75418562,5.584630695,-99999.0,'11133222,11111222,99999999' 
TABS,ioos:station:wmo:42049:1,2011-12-01T17:30:00Z,28.3507,-96.0058,2.0,45.65454416,6.809882525,-99999.0,'11133222,11111222,99999999' 
TABS,ioos:station:wmo:42049:1,2011-12-01T18:00:00Z,28.3507,-96.0058,2.0,27.20331079,5.621823548,-99999.0,'11133222,11111222,99999999' 
TABS,ioos:station:wmo:42049:1,2011-12-01T18:30:00Z,28.3507,-96.0058,2.0,8.224640815,6.011830004,-99999.0,'11133222,11111222,99999999' 
TABS,ioos:station:wmo:42049:1,2011-12-01T19:00:00Z,28.3507,-96.0058,2.0,32.64607762,5.783709882,-99999.0,'11133222,11111222,99999999' 
TABS,ioos:station:wmo:42049:1,2011-12-01T19:30:00Z,28.3507,-96.0058,2.0,28.85385848,5.26343044,-99999.0,'11133222,11111222,99999999' 
TABS,ioos:station:wmo:42049:1,2011-12-01T20:00:00Z,28.3507,-96.0058,2.0,2.09313987,6.024018592,-99999.0,'11133222,11111222,99999999' 
TABS,ioos:station:wmo:42049:1,2011-12-01T20:30:00Z,28.3507,-96.0058,2.0,6.231941491,8.751714118,-99999.0,'11133222,11111222,99999999' 
TABS,ioos:station:wmo:42049:1,2011-12-01T21:00:00Z,28.3507,-96.0058,2.0,1.977204039,9.565693911,-99999.0,'11133222,11111222,99999999' 
TABS,ioos:station:wmo:42049:1,2011-12-01T21:30:00Z,28.3507,-96.0058,2.0,3.794873853,9.821532467,-99999.0,'11133222,11111222,99999999' 
TABS,ioos:station:wmo:42049:1,2011-12-01T22:00:00Z,28.3507,-96.0058,2.0,349.2090637,7.797897152,-99999.0,'11133222,11111222,99999999' 
TABS,ioos:station:wmo:42049:1,2011-12-01T22:30:00Z,28.3507,-96.0058,2.0,9.764394792,7.488477816,-99999.0,'11133222,11111222,99999999' 
TABS,ioos:station:wmo:42049:1,2011-12-01T23:00:00Z,28.3507,-96.0058,2.0,347.6688147,9.130657151,-99999.0,'11133222,11111222,99999999' 
TABS,ioos:station:wmo:42049:1,2011-12-01T23:30:00Z,28.3507,-96.0058,2.0,1.191441624,5.291143544,-99999.0,'11133222,11111222,99999999' 
TABS,ioos:station:wmo:42049:1,2011-12-02T00:00:00Z,28.3507,-96.0058,2.0,340.2904796,8.954624504,-99999.0,'11133222,11111222,99999999' 
TABS,ioos:station:wmo:42049:1,2011-12-02T00:30:00Z,28.3507,-96.0058,2.0,357.991797,8.84543385,-99999.0,'11133222,11111222,99999999' 
TABS,ioos:station:wmo:42049:1,2011-12-02T01:00:00Z,28.3507,-96.0058,2.0,346.2779454,8.852683209,-99999.0,'11133222,11111222,99999999' 
TABS,ioos:station:wmo:42049:1,2011-12-02T01:30:00Z,28.3507,-96.0058,2.0,350.1344266,8.404284622,-99999.0,'11133222,11111222,99999999' 
TABS,ioos:station:wmo:42049:1,2011-12-02T02:00:00Z,28.3507,-96.0058,2.0,349.38058,6.999892856,-99999.0,'11133222,11111222,99999999' 
TABS,ioos:station:wmo:42049:1,2011-12-02T02:30:00Z,28.3507,-96.0058,2.0,335.2528169,5.780908233,-99999.0,'11133222,11111222,99999999' 
TABS,ioos:station:wmo:42049:1,2011-12-02T03:00:00Z,28.3507,-96.0058,2.0,312.0171056,7.201034648,-99999.0,'11133222,11111222,99999999' 
TABS,ioos:station:wmo:42049:1,2011-12-02T03:30:00Z,28.3507,-96.0058,2.0,308.4681943,7.458900723,-99999.0,'11133222,11111222,99999999' 
TABS,ioos:station:wmo:42049:1,2011-12-02T04:00:00Z,28.3507,-96.0058,2.0,298.0728422,6.46,-99999.0,'11133222,11111222,99999999' 
TABS,ioos:station:wmo:42049:1,2011-12-02T04:30:00Z,28.3507,-96.0058,2.0,331.8488463,5.977064497,-99999.0,'11133222,11111222,99999999' 
TABS,ioos:station:wmo:42049:1,2011-12-02T05:00:00Z,28.3507,-96.0058,2.0,320.6926543,6.63,-99999.0,'11133222,11111222,99999999' 
TABS,ioos:station:wmo:42049:1,2011-12-02T05:30:00Z,28.3507,-96.0058,2.0,297.928543,7.707671503,-99999.0,'11133222,11111222,99999999' 
TABS,ioos:station:wmo:42049:1,2011-12-02T06:00:00Z,28.3507,-96.0058,2.0,300.2388824,11.51705257,-99999.0,'11111222,11111222,99999999' 
TABS,ioos:station:wmo:42049:1,2011-12-02T06:30:00Z,28.3507,-96.0058,2.0,295.6062118,8.815815334,-99999.0,'11133222,11111222,99999999' 
TABS,ioos:station:wmo:42049:1,2011-12-02T07:00:00Z,28.3507,-96.0058,2.0,288.3406232,9.565902989,-99999.0,'11133222,11111222,99999999' 
TABS,ioos:station:wmo:42049:1,2011-12-02T07:30:00Z,28.3507,-96.0058,2.0,286.59482,11.51979601,-99999.0,'11111222,11111222,99999999' 
TABS,ioos:station:wmo:42049:1,2011-12-02T08:00:00Z,28.3507,-96.0058,2.0,281.0000138,7.966354248,-99999.0,'11133222,11111222,99999999' 
TABS,ioos:station:wmo:42049:1,2011-12-02T08:30:00Z,28.3507,-96.0058,2.0,292.1203534,11.02118868,-99999.0,'11111222,11111222,99999999' 
TABS,ioos:station:wmo:42049:1,2011-12-02T09:00:00Z,28.3507,-96.0058,2.0,286.1931892,9.861206823,-99999.0,'11133222,11111222,99999999' 
TABS,ioos:station:wmo:42049:1,2011-12-02T09:30:00Z,28.3507,-96.0058,2.0,279.8856512,11.35863548,-99999.0,'11111222,11111222,99999999' 
TABS,ioos:station:wmo:42049:1,2011-12-02T10:00:00Z,28.3507,-96.0058,2.0,274.169389,12.24239356,-99999.0,'11111222,11111222,99999999' 
TABS,ioos:station:wmo:42049:1,2011-12-02T10:30:00Z,28.3507,-96.0058,2.0,280.4341422,11.92721678,-99999.0,'11111222,11111222,99999999' 
TABS,ioos:station:wmo:42049:1,2011-12-02T11:00:00Z,28.3507,-96.0058,2.0,279.397865,10.16643989,-99999.0,'11111222,11111222,99999999' 
TABS,ioos:station:wmo:42049:1,2011-12-02T11:30:00Z,28.3507,-96.0058,2.0,280.6504469,11.57946458,-99999.0,'11111222,11111222,99999999' 
TABS,ioos:station:wmo:42049:1,2011-12-02T12:00:00Z,28.3507,-96.0058,2.0,278.6479654,12.37063054,-99999.0,'11111222,11111222,99999999' 
TABS,ioos:station:wmo:42049:1,2011-12-02T12:30:00Z,28.3507,-96.0058,2.0,272.6573664,11.00182712,-99999.0,'11111222,11111222,99999999' 
TABS,ioos:station:wmo:42049:1,2011-12-02T13:00:00Z,28.3507,-96.0058,2.0,269.5943116,11.31028293,-99999.0,'11111222,11111222,99999999' 
TABS,ioos:station:wmo:42049:1,2011-12-02T13:30:00Z,28.3507,-96.0058,2.0,281.9801849,13.92323597,-99999.0,'11111222,11111222,99999999' 
TABS,ioos:station:wmo:42049:1,2011-12-02T14:00:00Z,28.3507,-96.0058,2.0,273.5185606,15.97009706,-99999.0,'11111222,11111222,99999999' 
TABS,ioos:station:wmo:42049:1,2011-12-02T14:30:00Z,28.3507,-96.0058,2.0,270.0004209,12.62,-99999.0,'11111222,11111222,99999999' 
TABS,ioos:station:wmo:42049:1,2011-12-02T15:00:00Z,28.3507,-96.0058,2.0,273.2299794,15.97537167,-99999.0,'11111222,11111222,99999999' 
TABS,ioos:station:wmo:42049:1,2011-12-02T15:30:00Z,28.3507,-96.0058,2.0,268.0276694,13.07774445,-99999.0,'11111222,11111222,99999999' 
TABS,ioos:station:wmo:42049:1,2011-12-02T16:00:00Z,28.3507,-96.0058,2.0,254.367802,14.80769057,-99999.0,'11111222,11111222,99999999' 
TABS,ioos:station:wmo:42049:1,2011-12-02T16:30:00Z,28.3507,-96.0058,2.0,258.5399744,17.2641623,-99999.0,'11111222,11111222,99999999' 
TABS,ioos:station:wmo:42049:1,2011-12-02T17:00:00Z,28.3507,-96.0058,2.0,267.3088133,15.33690973,-99999.0,'11111222,11111222,99999999' 
TABS,ioos:station:wmo:42049:1,2011-12-02T17:30:00Z,28.3507,-96.0058,2.0,262.3833443,15.76911538,-99999.0,'11111222,11111222,99999999' 
TABS,ioos:station:wmo:42049:1,2011-12-02T18:00:00Z,28.3507,-96.0058,2.0,255.503963,14.8218285,-99999.0,'11111222,11111222,99999999' 
TABS,ioos:station:wmo:42049:1,2011-12-02T18:30:00Z,28.3507,-96.0058,2.0,264.723902,14.6821967,-99999.0,'11111222,11111222,99999999' 
TABS,ioos:station:wmo:42049:1,2011-12-02T19:00:00Z,28.3507,-96.0058,2.0,256.6955144,16.51317353,-99999.0,'11111222,11111222,99999999' 
TABS,ioos:station:wmo:42049:1,2011-12-02T19:30:00Z,28.3507,-96.0058,2.0,253.5681219,19.2668861,-99999.0,'11111222,11111222,99999999' 
TABS,ioos:station:wmo:42049:1,2011-12-02T20:00:00Z,28.3507,-96.0058,2.0,250.7199592,18.23251217,-99999.0,'11111222,11111222,99999999' 
TABS,ioos:station:wmo:42049:1,2011-12-02T20:30:00Z,28.3507,-96.0058,2.0,244.5904614,17.73562798,-99999.0,'11111222,11111222,99999999' 
TABS,ioos:station:wmo:42049:1,2011-12-02T21:00:00Z,28.3507,-96.0058,2.0,259.2647501,16.80407689,-99999.0,'11111222,11111222,99999999' 
TABS,ioos:station:wmo:42049:1,2011-12-02T21:30:00Z,28.3507,-96.0058,2.0,252.346562,16.91659836,-99999.0,'11111222,11111222,99999999' 
TABS,ioos:station:wmo:42049:1,2011-12-02T22:00:00Z,28.3507,-96.0058,2.0,265.7283233,15.17213894,-99999.0,'11111222,11111222,99999999' 
TABS,ioos:station:wmo:42049:1,2011-12-02T22:30:00Z,28.3507,-96.0058,2.0,263.9248597,15.96967439,-99999.0,'11111222,11111222,99999999' 
TABS,ioos:station:wmo:42049:1,2011-12-02T23:00:00Z,28.3507,-96.0058,2.0,259.6976118,17.94936489,-99999.0,'11111222,11111222,99999999' 
TABS,ioos:station:wmo:42049:1,2011-12-02T23:30:00Z,28.3507,-96.0058,2.0,261.0616442,19.7599418,-99999.0,'11111222,11111222,99999999' 
TABS,ioos:station:wmo:42049:1,2011-12-03T00:00:00Z,28.3507,-96.0058,2.0,264.9672742,28.15854045,-99999.0,'11111222,11111222,99999999' 
TABS,ioos:station:wmo:42049:1,2011-12-03T00:30:00Z,28.3507,-96.0058,2.0,259.7505014,25.74073231,-99999.0,'11111222,11111222,99999999' 
TABS,ioos:station:wmo:42049:1,2011-12-03T01:00:00Z,28.3507,-96.0058,2.0,260.458843,25.21882828,-99999.0,'11111222,11111222,99999999' 
TABS,ioos:station:wmo:42049:1,2011-12-03T01:30:00Z,28.3507,-96.0058,2.0,251.8076431,23.86276178,-99999.0,'11111222,11111222,99999999' 
TABS,ioos:station:wmo:42049:1,2011-12-03T02:00:00Z,28.3507,-96.0058,2.0,249.7933056,38.15846564,-99999.0,'11111222,11111222,99999999' 
TABS,ioos:station:wmo:42049:1,2011-12-03T02:30:00Z,28.3507,-96.0058,2.0,246.9032323,36.81050394,-99999.0,'11111222,11111222,99999999' 
TABS,ioos:station:wmo:42049:1,2011-12-03T03:00:00Z,28.3507,-96.0058,2.0,244.2512316,32.31893717,-99999.0,'11111222,11111222,99999999' 
TABS,ioos:station:wmo:42049:1,2011-12-03T03:30:00Z,28.3507,-96.0058,2.0,237.3585694,31.81461457,-99999.0,'11111222,11111222,99999999' 
TABS,ioos:station:wmo:42049:1,2011-12-03T04:00:00Z,28.3507,-96.0058,2.0,233.5732562,27.13081274,-99999.0,'11111222,11111222,99999999' 
TABS,ioos:station:wmo:42049:1,2011-12-03T04:30:00Z,28.3507,-96.0058,2.0,233.523546,23.28054982,-99999.0,'11111222,11111222,99999999' 
TABS,ioos:station:wmo:42049:1,2011-12-03T05:00:00Z,28.3507,-96.0058,2.0,237.2453821,25.30325078,-99999.0,'11111222,11111222,99999999' 
TABS,ioos:station:wmo:42049:1,2011-12-03T05:30:00Z,28.3507,-96.0058,2.0,227.9858431,22.39619834,-99999.0,'11111222,11111222,99999999' 
TABS,ioos:station:wmo:42049:1,2011-12-03T06:00:00Z,28.3507,-96.0058,2.0,223.7239582,20.00901047,-99999.0,'11111222,11111222,99999999' 
TABS,ioos:station:wmo:42049:1,2011-12-03T06:30:00Z,28.3507,-96.0058,2.0,222.6304329,22.23630365,-99999.0,'11111222,11111222,99999999' 
TABS,ioos:station:wmo:42049:1,2011-12-03T07:00:00Z,28.3507,-96.0058,2.0,226.0685938,17.81511998,-99999.0,'11111222,11111222,99999999' 
TABS,ioos:station:wmo:42049:1,2011-12-03T07:30:00Z,28.3507,-96.0058,2.0,224.4603867,15.77625114,-99999.0,'11111222,11111222,99999999' 
TABS,ioos:station:wmo:42049:1,2011-12-03T08:00:00Z,28.3507,-96.0058,2.0,222.6235264,15.52019652,-99999.0,'11111222,11111222,99999999' 
TABS,ioos:station:wmo:42049:1,2011-12-03T08:30:00Z,28.3507,-96.0058,2.0,219.8052676,12.96501446,-99999.0,'11111222,11111222,99999999' 
TABS,ioos:station:wmo:42049:1,2011-12-03T09:00:00Z,28.3507,-96.0058,2.0,227.8249695,13.62837114,-99999.0,'11111222,11111222,99999999' 
TABS,ioos:station:wmo:42049:1,2011-12-03T09:30:00Z,28.3507,-96.0058,2.0,231.4953267,13.81362009,-99999.0,'11111222,11111222,99999999' 
TABS,ioos:station:wmo:42049:1,2011-12-03T10:00:00Z,28.3507,-96.0058,2.0,225.821546,15.28214972,-99999.0,'11111222,11111222,99999999' 
TABS,ioos:station:wmo:42049:1,2011-12-03T10:30:00Z,28.3507,-96.0058,2.0,243.6128723,11.4979172,-99999.0,'11111222,11111222,99999999' 
TABS,ioos:station:wmo:42049:1,2011-12-03T11:00:00Z,28.3507,-96.0058,2.0,247.2920679,12.56386087,-99999.0,'11111222,11111222,99999999' 
TABS,ioos:station:wmo:42049:1,2011-12-03T11:30:00Z,28.3507,-96.0058,2.0,248.0689946,13.1732608,-99999.0,'11111222,11111222,99999999' 
TABS,ioos:station:wmo:42049:1,2011-12-03T12:00:00Z,28.3507,-96.0058,2.0,248.5637911,9.604358386,-99999.0,'11133222,11111222,99999999' 
TABS,ioos:station:wmo:42049:1,2011-12-03T12:30:00Z,28.3507,-96.0058,2.0,245.1403825,8.563463085,-99999.0,'11133222,11111222,99999999' 
TABS,ioos:station:wmo:42049:1,2011-12-03T13:00:00Z,28.3507,-96.0058,2.0,237.0135442,6.998071163,-99999.0,'11133222,11111222,99999999' 
TABS,ioos:station:wmo:42049:1,2011-12-03T13:30:00Z,28.3507,-96.0058,2.0,222.5642454,7.155312712,-99999.0,'11133222,11111222,99999999' 
TABS,ioos:station:wmo:42049:1,2011-12-03T14:00:00Z,28.3507,-96.0058,2.0,215.8455938,6.267000878,-99999.0,'11133222,11111222,99999999' 
TABS,ioos:station:wmo:42049:1,2011-12-03T14:30:00Z,28.3507,-96.0058,2.0,209.2845078,5.560656436,-99999.0,'11133222,11111222,99999999' 
TABS,ioos:station:wmo:42049:1,2011-12-03T15:00:00Z,28.3507,-96.0058,2.0,198.0547002,4.291305163,-99999.0,'11133222,11111222,99999999' 
TABS,ioos:station:wmo:42049:1,2011-12-03T15:30:00Z,28.3507,-96.0058,2.0,171.5039235,4.87347925,-99999.0,'11133222,11111222,99999999' 
TABS,ioos:station:wmo:42049:1,2011-12-03T16:00:00Z,28.3507,-96.0058,2.0,135.4355947,3.719489212,-99999.0,'11133222,11111222,99999999' 
TABS,ioos:station:wmo:42049:1,2011-12-03T16:30:00Z,28.3507,-96.0058,2.0,185.6151261,4.190107397,-99999.0,'11133222,11111222,99999999' 
TABS,ioos:station:wmo:42049:1,2011-12-03T17:00:00Z,28.3507,-96.0058,2.0,200.0283845,11.82516807,-99999.0,'11111222,11111222,99999999' 
TABS,ioos:station:wmo:42049:1,2011-12-03T17:30:00Z,28.3507,-96.0058,2.0,198.7164992,12.21602636,-99999.0,'11111222,11111222,99999999' 
TABS,ioos:station:wmo:42049:1,2011-12-03T18:00:00Z,28.3507,-96.0058,2.0,195.8265015,14.5932176,-99999.0,'11111222,11111222,99999999' 
TABS,ioos:station:wmo:42049:1,2011-12-03T18:30:00Z,28.3507,-96.0058,2.0,200.2670579,15.32907368,-99999.0,'11111222,11111222,99999999' 
TABS,ioos:station:wmo:42049:1,2011-12-03T19:00:00Z,28.3507,-96.0058,2.0,199.1999299,14.44341026,-99999.0,'11111222,11111222,99999999' 
TABS,ioos:station:wmo:42049:1,2011-12-03T19:30:00Z,28.3507,-96.0058,2.0,196.4310297,17.81767942,-99999.0,'11111222,11111222,99999999' 
TABS,ioos:station:wmo:42049:1,2011-12-03T20:00:00Z,28.3507,-96.0058,2.0,198.4100837,14.72356614,-99999.0,'11111222,11111222,99999999' 
TABS,ioos:station:wmo:42049:1,2011-12-03T20:30:00Z,28.3507,-96.0058,2.0,203.6043256,18.53042903,-99999.0,'11111222,11111222,99999999' 
TABS,ioos:station:wmo:42049:1,2011-12-03T21:00:00Z,28.3507,-96.0058,2.0,223.8911608,18.27505951,-99999.0,'11111222,11111222,99999999' 
TABS,ioos:station:wmo:42049:1,2011-12-03T21:30:00Z,28.3507,-96.0058,2.0,214.7802578,14.42759162,-99999.0,'11111222,11111222,99999999' 
TABS,ioos:station:wmo:42049:1,2011-12-03T22:00:00Z,28.3507,-96.0058,2.0,198.5726963,14.44216397,-99999.0,'11111222,11111222,99999999' 
TABS,ioos:station:wmo:42049:1,2011-12-03T22:30:00Z,28.3507,-96.0058,2.0,186.4371435,13.02210428,-99999.0,'11111222,11111222,99999999' 
TABS,ioos:station:wmo:42049:1,2011-12-03T23:00:00Z,28.3507,-96.0058,2.0,185.5590541,7.53544292,-99999.0,'11133222,11111222,99999999' 
TABS,ioos:station:wmo:42049:1,2011-12-03T23:30:00Z,28.3507,-96.0058,2.0,243.0621425,8.255737399,-99999.0,'11133222,11111222,99999999' 
TABS,ioos:station:wmo:42049:1,2011-12-04T00:00:00Z,28.3507,-96.0058,2.0,255.7210318,8.028000997,-99999.0,'11133222,11111222,99999999' 
TABS,ioos:station:wmo:42049:1,2011-12-04T00:30:00Z,28.3507,-96.0058,2.0,257.9592908,13.2310695,-99999.0,'11111222,11111222,99999999' 
TABS,ioos:station:wmo:42049:1,2011-12-04T01:00:00Z,28.3507,-96.0058,2.0,279.9362279,14.72078802,-99999.0,'11111222,11111222,99999999' 
TABS,ioos:station:wmo:42049:1,2011-12-04T01:30:00Z,28.3507,-96.0058,2.0,283.8710377,14.26600505,-99999.0,'11111222,11111222,99999999' 
TABS,ioos:station:wmo:42049:1,2011-12-04T02:00:00Z,28.3507,-96.0058,2.0,267.6422046,19.20625419,-99999.0,'11111222,11111222,99999999' 
TABS,ioos:station:wmo:42049:1,2011-12-04T02:30:00Z,28.3507,-96.0058,2.0,284.718127,44.04515978,-99999.0,'11111222,11111222,99999999' 
TABS,ioos:station:wmo:42049:1,2011-12-04T03:00:00Z,28.3507,-96.0058,2.0,280.5244791,39.0366661,-99999.0,'11111222,11111222,99999999' 
TABS,ioos:station:wmo:42049:1,2011-12-04T03:30:00Z,28.3507,-96.0058,2.0,274.7967513,34.92229088,-99999.0,'11111222,11111222,99999999' 
TABS,ioos:station:wmo:42049:1,2011-12-04T04:00:00Z,28.3507,-96.0058,2.0,270.6383185,34.13211538,-99999.0,'11111222,11111222,99999999' 
TABS,ioos:station:wmo:42049:1,2011-12-04T04:30:00Z,28.3507,-96.0058,2.0,260.8483699,31.18694759,-99999.0,'11111222,11111222,99999999' 
TABS,ioos:station:wmo:42049:1,2011-12-04T05:00:00Z,28.3507,-96.0058,2.0,253.5945239,29.10489306,-99999.0,'11111222,11111222,99999999' 
TABS,ioos:station:wmo:42049:1,2011-12-04T05:30:00Z,28.3507,-96.0058,2.0,255.2969316,27.10761517,-99999.0,'11111222,11111222,99999999' 
TABS,ioos:station:wmo:42049:1,2011-12-04T06:00:00Z,28.3507,-96.0058,2.0,254.1154593,29.55863664,-99999.0,'11111222,11111222,99999999' 
TABS,ioos:station:wmo:42049:1,2011-12-04T06:30:00Z,28.3507,-96.0058,2.0,254.5566639,30.23147532,-99999.0,'11111222,11111222,99999999' 
TABS,ioos:station:wmo:42049:1,2011-12-04T07:00:00Z,28.3507,-96.0058,2.0,250.7554489,28.88396268,-99999.0,'11111222,11111222,99999999' 
TABS,ioos:station:wmo:42049:1,2011-12-04T07:30:00Z,28.3507,-96.0058,2.0,250.6036121,29.59992061,-99999.0,'11111222,11111222,99999999' 
TABS,ioos:station:wmo:42049:1,2011-12-04T08:00:00Z,28.3507,-96.0058,2.0,248.1068109,29.09849652,-99999.0,'11111222,11111222,99999999' 
TABS,ioos:station:wmo:42049:1,2011-12-04T08:30:00Z,28.3507,-96.0058,2.0,243.9310899,27.35261048,-99999.0,'11111222,11111222,99999999' 
TABS,ioos:station:wmo:42049:1,2011-12-04T09:00:00Z,28.3507,-96.0058,2.0,248.0559402,26.92033618,-99999.0,'11111222,11111222,99999999' 
TABS,ioos:station:wmo:42049:1,2011-12-04T09:30:00Z,28.3507,-96.0058,2.0,242.4934015,29.40378887,-99999.0,'11111222,11111222,99999999' 
TABS,ioos:station:wmo:42049:1,2011-12-04T10:00:00Z,28.3507,-96.0058,2.0,241.59495,28.00105891,-99999.0,'11111222,11111222,99999999' 
TABS,ioos:station:wmo:42049:1,2011-12-04T10:30:00Z,28.3507,-96.0058,2.0,244.6576584,25.98008468,-99999.0,'11111222,11111222,99999999' 
TABS,ioos:station:wmo:42049:1,2011-12-04T11:00:00Z,28.3507,-96.0058,2.0,244.9341336,25.63411789,-99999.0,'11111222,11111222,99999999' 
TABS,ioos:station:wmo:42049:1,2011-12-04T11:30:00Z,28.3507,-96.0058,2.0,229.3104853,21.91867925,-99999.0,'11111222,11111222,99999999' 
TABS,ioos:station:wmo:42049:1,2011-12-04T12:00:00Z,28.3507,-96.0058,2.0,252.7646515,23.25416522,-99999.0,'11111222,11111222,99999999' 
TABS,ioos:station:wmo:42049:1,2011-12-04T12:30:00Z,28.3507,-96.0058,2.0,251.4615,21.07345249,-99999.0,'11111222,11111222,99999999' 
TABS,ioos:station:wmo:42049:1,2011-12-04T13:00:00Z,28.3507,-96.0058,2.0,258.0120952,22.38822235,-99999.0,'11111222,11111222,99999999' 
TABS,ioos:station:wmo:42049:1,2011-12-04T13:30:00Z,28.3507,-96.0058,2.0,254.1799487,19.40497359,-99999.0,'11111222,11111222,99999999' 
TABS,ioos:station:wmo:42049:1,2011-12-04T14:00:00Z,28.3507,-96.0058,2.0,252.7115084,20.22365447,-99999.0,'11111222,11111222,99999999' 
TABS,ioos:station:wmo:42049:1,2011-12-04T14:30:00Z,28.3507,-96.0058,2.0,255.5796815,18.83331357,-99999.0,'11111222,11111222,99999999' 
TABS,ioos:station:wmo:42049:1,2011-12-04T15:00:00Z,28.3507,-96.0058,2.0,258.6950323,20.9667761,-99999.0,'11111222,11111222,99999999' 
TABS,ioos:station:wmo:42049:1,2011-12-04T15:30:00Z,28.3507,-96.0058,2.0,252.7080271,18.06652706,-99999.0,'11111222,11111222,99999999' 
TABS,ioos:station:wmo:42049:1,2011-12-04T16:00:00Z,28.3507,-96.0058,2.0,245.0981247,22.79961403,-99999.0,'11111222,11111222,99999999' 